Погода в Келлоге

Погода в Келлоге : погода сейчас, прогноз погоды и архив. Всё, что Вы хотите узнать о погоде в Келлоге!

Поиск расширенной информации на нашем сайте:

Другие новости

Новости СМИ2

Главная страница сайта

Новости сайта

03.07.2017

Напоминаем, что на нашем специализированном сайте Метеоцентр.Азия вы можете получить высокодетализированные автоматические прогнозы погоды по пунктам России, СНГ и мира в авиационном формате (включающие направление и скорость ветра, видимость, явления погоды, количество и форму облачности, нижнюю и верхнюю границу облачности).


Погода в Келлоге - сегодня

Время (UTC), дата Ветер
(°,м/с) 
Видим.   Явления Облачность Т
(°С)
Тd
(°С)
f(%) Тe
(°С)
Pmin
(гПа)
dP
(гПа)
Po
(мм)
O2
(г/м3)
Тmin Tmax R s Состояние
почвы
00 22.11.17 030 (СВ) н/о    н/о 
-19.5 -21.7 83 -22  1023.8  2.1  762  332  -21.6    38  равномерный
сухой снег
100% 
03 22.11.17 020 (С) н/о    н/о 
-19.3 -21.5 83 -20  1026.4  2.5  764  333           
06 22.11.17 020 (С) н/о    н/о 
-17.4 -19.6 83 -20  1028.6  2.3  765  331           
09 22.11.17 040 (СВ) н/о    н/о 
-17.4 -19.6 83 -18  1030.2  1.6  766  331           
12 22.11.17 030 (СВ) н/о    н/о 
-18.7 -21 82 -19  1031.3  1.1  767  333    -17.2  0.2     
15 22.11.17 040 (СВ) н/о    н/о 
-18.5 -20.7 83 -19  1031.1  -0.2  767  333           
18 22.11.17 040 (СВ) н/о    н/о 
-18.5 -20.7 83 -19  1030.5  -0.6  767  333           
21 22.11.17 040 (СВ) н/о    н/о 
-18.6 -20.7 83 -19  1029.9  -0.6  766  333           
00 23.11.17 040 (СВ) н/о    н/о 
-19.3 -21.6 82 -20  1028.9  -1.1  765  334  -19.3         
03 23.11.17 030 (СВ) н/о    н/о 
-19.2 -21.4 83 -19  1028.4  -0.4  765  333  -19.9         
06 23.11.17 020 (С) н/о    н/о 
-18.3 -20.6 82 -21  1028.1  -0.3  765  332           
09 23.11.17 020 (С) н/о    н/о 
-18.4 -20.7 82 -21  1028.3  0.2  765  332           
12 23.11.17 020 (С) н/о    н/о 
-19 -21.2 83 -22  1028.1  765  333    -18.1     
15 23.11.17 020 (С) н/о    н/о 
-19.1 -21.3 83 -22  1028  0.1  765  333           
18 23.11.17 030 (СВ) н/о    н/о 
-18.7 -20.8 83 -19  1027.7  -0.3  765  332           
21 23.11.17 030 (СВ) н/о    н/о 
-18.8 -20.9 83 -21  1027  -0.7  764  332           
00 24.11.17 030 (СВ) н/о    н/о 
-19.3 -21.5 83 -22  1026.2  -0.8  763  333  -19.4    37  равномерный
сухой снег
100% 
03 24.11.17 030 (СВ) н/о    н/о 
-19 -21.2 83 -22  1024.9  -1.3  762  332           
06 24.11.17 040 (СВ) н/о    н/о 
-18.1 -20.2 84 -21  1023  -1.8  761  330           
09 24.11.17 040 (СВ) н/о    н/о 
-16.6 -18.6 85 -19  1020.9  -2  760  327           
12 24.11.17 130 (ЮВ) н/о    н/о 
-13.9 -15.5 88 -14  1017.2  -3.5  757  323    -13.9     
15 24.11.17 130 (ЮВ) н/о    н/о 
-12.4 -13.9 89 -12  1011.5  -5.6  753  319           
18 24.11.17 150 (ЮВ) н/о    н/о 
-10.6 -11.9 90 -12  1005.4  -6  748  315           
21 24.11.17 170 (Ю) н/о    н/о 
-6.8 -7.6 94 -8  1001.8  -3.5  746  309           
00 25.11.17 240 (ЮЗ) н/о    н/о 
-4.4 -5.7 91 -8  999.2  -2.5  744  305  -13.8    0.8  45  равномерный
сухой снег
100% 
Время (UTC), дата Ветер
(°,м/с) 
Видим.   Явления Облачность Т
(°С)
Тd
(°С)
f(%) Тe
(°С)
Pmin
(гПа)
dP
(гПа)
Po
(мм)
O2
(г/м3)
Тmin Tmax R s Состояние
почвы

Для получения пояснительной информации подведите курсор к названию столбца.

ПОГОДА в Келлоге - архив

Всё, что Вы хотите узнать о погоде в Келлоге - удобно и подробно!

Выберите нужную дату (начиная с 1 января 2015* года) и нажмите кнопку "Найти".
Будут отображены архивные сводки погоды по пункту Келлог, начиная с указанной даты.


Отображать данные в формате CSV (для использования в таблицах Excel)


Внимание! Наш архив погоды предназначен исключительно для личного некоммерческого использования в познавательных целях. Если Вам необходимы официальные справки о состоянии погоды (для производственных, юридических, коммерческих и т.п. целей), обращайтесь в органы Росгидромета.

*Примечание: данная дата относится к архиву по метеостанциям СССР (Россия, СНГ, Балтия).
Архив по метеостанциям Зарубежной Европы и Азии (кроме Китая) хранится 10 дней, по другим регионам земного шара (Китай, Африка, Америка, Австралия, Океания) - 1 день.

Келлог - район местоположения метеостанции


Название, широта, долгота, высота метеостанции:
Келлог 62.4°ш. 86.6°д. 58 м над ур. моря [Российская Федерация]

Дополнительная информация

В oтличие oт бoльшинства пoгoдных сайтoв мы публикуем пoдрoбную метеoинфoрмацию в детальнoм прoфессиoнальнoм фoрмате.

Характеристики температуры и влажнoсти вoздуха измеряются на высoте 2 м в тени вдали oт зданий и деревьев.
Скoрoсть ветра измеряется на высoте 10 м (на урoвне рoста челoвека скoрoсть ветра ниже в 1.5-2 раза). Если метеoстанция нахoдится в гoрoде или в лесу, тo скoрoсть ветра занижена на 2-4 м/с пo сравнению с oткрытым местoм. Скoрoсть ветра над акватoриями крупных рек и oзёр, а также на вершинах хoлмoв на 2-5 м/с выше, чем в oбычных услoвиях.
Атмoсфернoе давление в разных тoчках местнoсти мoжет значительнo oтличаться oт давления на метеoстанции, в зависимoсти oт услoвий рельефа (при пoдъёме на 10 м давление пoнижается примернo на 1 мм рт.ст.).